SCP
0 0 0 0 0 0 0 0 0 0 0 0 0 0 0 0 0 0 0 0 0 0 0 0 1 1 1 1 1 1 1 1 1 1 1 1 1 1 2 1 1 1 0
0 0 0 0 0 0 0 0 0 0 0 0 0 0 0 0 0 0 0 0 0 0 0 0 1 1 1 1 1 1 1 1 1 1 1 1 1 1 1 2 2 1 1
0 0 1 0 0 0 0 0 0 0 0 0 0 0 0 0 0 0 0 0 0 0 0 0 0 1 2 2 2 2 1 1 1 1 1 1 2 2 1 2 2 2 1
0 0 1 0 0 0 0 0 0 0 0 0 0 0 0 0 0 0 0 0 0 0 0 0 0 1 1 1 2 1 1 1 1 1 1 1 2 2 1 1 2 2 1
0 0 0 0 0 0 0 0 0 0 0 0 0 0 0 0 0 0 0 0 0 0 0 0 0 0 0 0 0 0 1 1 1 1 1 1 1 1 2 2 2 2 1
0 0 0 0 0 0 0 0 0 0 0 0 0 0 0 0 -0 0 0 -0 0 0 0 0 0 0 0 0 0 1 1 2 2 2 1 1 1 1 1 1 1 2 2
0 0 0 0 0 0 0 0 0 0 0 0 0 0 0 -0 0 -0 0 -0 0 0 0 0 0 0 0 0 0 0 0 0 1 2 2 1 1 1 1 1 1 1 1
0 0 0 0 0 0 0 0 0 0 0 0 0 -0 -0 -0 0 -0 -0 -0 -0 0 0 0 0 0 0 0 0 0 0 0 0 0 0 0 0 0 1 1 1 1 1
0 0 0 0 0 0 0 0 0 0 0 0 0 -0 -0 -0 -0 -0 -0 0 -0 0 0 0 0 0 0 0 0 0 0 0 0 0 0 0 0 0 0 0 1 1 1
0 0 0 0 0 0 0 0 0 0 0 0 -0 -0 0 0 -0 -0 0 -0 -0 0 0 0 0 0 0 0 0 0 0 0 0 0 0 0 0 0 0 0 0 1 1
0 0 0 0 0 0 0 0 0 -0 0 0 0 0 0 0 0 0 0 -0 -0 0 0 0 0 0 0 0 0 0 0 0 0 0 0 0 0 0 0 0 0 0 1
0 0 0 0 0 0 0 0 0 0 0 0 0 0 0 0 0 0 0 0 0 0 0 0 0 0 0 0 0 0 0 0 0 0 0 0 0 0 0 0 0 1 1
0 0 0 0 0 0 0 0 0 0 0 0 0 0 0 0 0 0 0 0 0 0 0 0 0 0 0 0 -0 0 0 0 0 0 0 0 0 0 0 0 0 1 1
0 0 0 0 0 0 0 0 0 0 0 0 0 0 0 0 0 0 0 0 0 0 0 0 0 0 0 0 0 0 0 0 0 0 0 0 0 0 0 0 0 0 0
0 0 0 0 0 0 0 0 0 0 0 0 0 -0 0 0 0 0 0 0 0 0 0 0 0 0 0 0 0 0 0 0 0 0 0 0 0 0 0 0 0 0 0
0 0 0 0 0 0 0 0 0 0 0 0 0 0 0 0 0 0 0 0 0 0 0 0 0 0 0 0 0 0 0 0 0 0 0 0 0 0 0 0 0 0 0
0 0 0 0 0 0 0 0 0 0 0 0 0 0 0 0 0 0 0 0 0 0 0 0 0 0 0 0 0 0 0 0 0 0 0 0 0 0 0 0 0 0 0
0 0 0 0 0 0 0 0 0 0 0 0 0 0 0 0 0 0 0 0 0 0 0 0 0 0 0 0 0 0 0 0 0 0 0 0 0 0 0 0 0 0 0
0 0 0 0 0 0 0 0 0 0 0 0 0 0 0 0 0 0 0 0 0 0 0 0 0 0 0 0 0 0 0 0 0 0 0 0 0 0 0 0 0 0 0
0 0 0 0 0 0 0 0 0 0 0 0 0 0 0 0 0 0 0 0 0 0 0 0 0 0 0 0 0 0 0 0 0 0 0 0 0 0 0 0 0 0 0
0 0 0 0 0 0 0 0 0 0 0 0 0 0 0 0 0 0 0 0 0 0 0 0 0 0 0 0 0 0 0 0 0 -0 -0 0 0 0 0 0 0 0 0
0 0 0 0 0 0 0 0 0 0 0 0 0 0 0 0 0 0 0 0 0 0 0 0 0 0 0 0 0 0 0 0 -0 0 0 0 0 0 0 0 0 0 0
0 0 0 0 0 -0 -0 0 0 0 0 0 0 0 0 0 0 0 0 0 0 0 0 0 0 0 0 0 0 0 0 0 0 0 0 0 0 0 0 0 0 0 0
0 -0 -0 -0 -0 -0 -0 0 0 -0 -0 -0 -0 -0 0 0 0 0 0 0 -0 -0 -0 0 0 0 0 0 0 0 0 0 0 0 -0 0 -0 0 -0 0 0 0 0
0 -0 -0 -0 -0 -0 -0 -0 0 0 -0 -0 -0 0 0 0 0 0 0 -0 -0 -0 0 0 -0 0 0 0 0 0 0 0 0 0 -0 0 0 0 0 0 0 0 0
0 0 0 0 0 0 -0 -0 -0 -0 -0 -0 -0 0 0 0 0 0 -0 -0 -0 -0 -0 -0 -0 -0 -0 -0 0 0 0 0 -0 0 0 0 0 0 0 0 -0 0 0
Wind_Speed_500mb
24 22 20 17 10 17 12 14 8 5 7 8 14 19 21 28 30 32 35 38 38 41 45 50 52 46 40 47 48 48 52 57 62 63 67 66 67 68 67 68 67 71 70
22 20 23 20 20 18 18 18 11 8 11 12 17 22 32 36 39 40 41 41 42 43 42 39 35 36 42 47 48 49 51 51 57 62 64 66 67 72 69 67 70 74 78
25 26 27 22 22 22 24 21 14 13 15 18 23 31 37 42 45 47 46 44 41 41 39 36 32 29 30 33 38 50 50 50 51 58 63 63 65 67 67 67 69 73 77
32 33 29 28 24 22 24 21 18 18 20 25 31 34 37 42 48 51 48 42 42 36 30 29 34 36 38 39 36 40 44 47 44 46 55 57 61 67 68 63 68 69 67
31 28 27 25 24 23 22 22 19 22 26 30 30 30 36 43 46 46 48 37 48 39 37 37 36 43 45 39 37 41 47 51 53 55 50 53 55 54 57 63 66 69 72
22 22 31 30 26 23 24 20 20 22 26 31 34 36 41 43 51 51 41 62 44 44 40 38 38 32 32 40 46 51 51 51 53 53 59 55 52 55 57 60 63 68 71
22 23 21 23 25 26 28 25 20 21 26 34 41 46 48 50 50 49 68 48 47 40 44 39 27 38 42 47 51 49 42 44 45 48 51 54 56 56 55 59 59 62 68
33 27 21 20 24 24 23 21 20 22 29 37 44 46 29 48 40 65 46 54 50 53 40 30 33 40 43 49 57 50 44 44 40 43 47 48 48 51 53 56 60 61 65
22 20 26 31 27 21 18 17 21 26 32 37 40 30 20 18 65 30 58 51 65 52 45 35 33 41 46 54 54 53 53 54 51 54 52 52 54 58 61 69 70 66 66
33 31 26 26 24 20 21 32 34 38 39 42 44 41 31 31 22 36 45 72 61 57 44 41 38 43 52 53 56 59 63 58 53 55 63 66 66 68 71 72 68 68 71
37 35 34 38 40 43 38 54 51 47 44 44 44 43 45 45 41 40 62 75 64 63 52 48 47 52 53 58 58 64 51 58 63 60 62 63 66 67 70 71 68 64 65
28 33 37 41 42 39 38 38 43 52 46 33 31 35 38 40 47 48 60 63 67 59 52 56 52 50 51 53 67 50 58 57 63 56 48 49 51 55 57 57 52 47 48
33 35 43 42 43 43 42 41 38 36 33 34 41 45 43 41 40 47 52 60 59 68 55 49 51 59 60 58 55 62 58 54 50 51 44 39 37 36 33 30 35 30 29
37 39 43 46 44 45 45 44 40 40 43 39 41 41 44 47 45 41 44 53 69 55 56 40 60 55 52 57 59 58 56 50 49 40 36 29 28 27 27 27 25 29 22
43 48 50 49 48 49 48 45 38 43 41 43 46 54 56 55 53 43 46 49 58 52 51 48 45 49 62 55 53 50 38 39 34 29 23 17 20 28 23 6 2 5 16
46 50 52 53 52 49 46 50 57 52 54 67 60 57 58 58 55 53 53 47 56 59 55 48 54 53 52 42 39 29 27 26 24 23 19 15 14 11 7 6 11 9 5
39 46 51 55 50 52 56 51 43 42 47 48 52 58 61 58 54 51 42 45 56 48 51 42 39 39 39 27 23 21 21 19 13 10 15 16 15 12 10 10 10 11 11
46 45 44 43 47 52 49 53 49 43 43 48 54 58 58 51 48 43 41 46 48 41 42 31 32 26 20 15 15 16 15 12 12 17 18 13 12 12 12 12 13 16 19
54 47 46 50 46 44 40 33 35 35 43 50 58 60 51 41 39 38 38 38 35 30 16 13 9 5 6 9 10 12 11 12 12 14 16 16 14 14 13 11 10 12 14
45 58 44 40 46 46 38 33 36 47 52 56 56 47 34 30 29 24 23 18 8 4 3 5 8 6 7 10 13 14 13 16 19 14 18 13 14 17 16 12 18 16 15
32 32 40 40 37 42 43 43 44 50 53 43 39 26 21 13 11 9 9 9 8 9 13 11 12 12 12 16 21 22 20 22 22 21 20 18 16 16 15 12 16 14 12
10 6 19 25 30 36 41 46 51 52 37 34 26 22 5 8 11 8 9 9 14 16 13 12 14 17 15 17 18 18 21 21 27 30 23 12 15 14 12 13 16 15 12
18 21 25 28 35 42 47 39 34 33 31 26 27 23 23 25 26 27 24 17 17 17 19 20 19 16 15 18 20 20 18 19 27 34 24 12 14 14 10 12 19 18 14
19 21 21 24 30 30 25 26 27 24 22 20 34 27 23 21 20 25 30 21 18 16 18 20 22 24 26 25 25 24 21 22 23 27 28 14 18 13 9 11 19 18 12
14 14 18 18 18 16 15 14 10 9 26 38 27 31 27 30 27 16 14 15 17 14 17 19 20 21 19 19 20 17 21 23 30 23 35 17 19 13 10 12 21 20 16
17 16 17 20 22 22 21 12 34 44 48 37 27 33 22 20 12 11 9 11 8 9 10 14 18 21 21 20 24 22 23 29 34 22 38 24 16 15 10 16 18 16 15
Wind_Direction_500mb
229 227 222 218 224 211 220 210 199 249 302 325 329 330 329 329 326 321 315 308 302 297 292 290 289 291 297 294 290 281 282 281 280 281 280 279 277 274 278 278 275 270 268
254 258 244 226 224 220 193 207 227 264 288 301 315 323 324 326 325 322 317 312 306 300 297 299 303 304 294 286 287 288 287 286 285 281 279 281 278 273 275 275 274 273 270
262 277 265 238 232 204 216 224 235 266 285 292 310 319 320 324 327 324 322 321 313 307 304 297 294 306 315 301 289 279 278 282 280 276 274 276 280 275 275 272 272 270 266
266 271 261 238 231 218 206 223 251 268 288 302 312 319 324 329 329 324 323 316 317 309 310 300 299 301 307 308 293 286 283 290 290 292 274 271 276 274 274 275 272 271 270
260 243 215 221 206 210 216 242 261 283 298 305 309 316 327 332 332 330 319 326 324 314 301 299 298 297 302 301 301 293 292 292 292 292 292 283 279 275 274 272 277 276 274
230 205 224 222 213 227 244 253 272 293 306 312 315 319 325 334 335 336 332 328 329 315 305 300 304 314 307 304 295 291 294 291 288 286 282 279 279 277 271 270 274 275 274
229 231 215 211 224 239 250 262 280 301 317 321 323 324 332 336 332 336 327 330 331 330 317 309 300 312 316 311 311 318 310 301 294 284 277 277 278 276 273 272 273 277 277
247 220 223 238 257 260 263 267 284 312 325 335 342 342 333 333 320 329 331 329 332 330 322 302 298 307 307 309 312 313 311 305 297 288 284 282 276 271 271 269 269 273 273
211 235 255 262 260 268 281 298 315 319 326 332 339 345 339 318 326 327 324 322 327 335 333 316 297 302 302 305 311 310 309 308 297 283 279 279 276 271 278 281 280 280 276
239 233 250 260 265 288 327 327 332 330 330 330 332 331 327 317 328 322 310 318 321 330 332 329 321 307 306 309 308 307 309 308 299 287 280 279 280 277 277 281 284 283 278
249 252 249 258 276 285 283 292 302 310 314 321 325 322 318 318 318 317 313 318 323 325 327 321 317 313 309 308 309 314 313 309 304 298 289 284 279 279 282 285 287 283 276
256 265 272 281 279 288 281 283 286 289 297 311 316 312 317 317 312 313 311 310 310 317 317 318 312 315 306 304 314 320 321 321 321 321 305 296 291 287 287 287 289 288 283
271 267 262 264 270 275 280 285 287 294 301 305 307 304 310 305 302 308 306 308 308 308 312 304 303 303 302 307 314 316 317 319 320 320 322 317 313 311 306 304 304 297 297
268 258 257 259 259 266 274 277 283 289 305 310 311 306 306 302 302 305 305 307 306 305 305 295 304 302 302 303 308 311 314 316 316 313 318 328 321 323 325 314 307 298 291
265 264 265 263 265 266 263 273 290 298 304 313 318 318 315 315 302 296 293 295 301 298 298 298 296 299 299 303 304 308 307 310 307 311 309 315 306 312 306 277 199 126 293
264 259 260 257 256 259 266 270 288 286 286 291 303 305 313 315 301 296 294 295 296 294 286 290 295 293 295 296 303 299 295 295 295 293 294 293 293 290 264 251 269 238 192
262 261 263 260 254 264 269 272 275 280 288 293 299 304 308 311 304 299 295 300 300 290 282 288 285 284 298 305 301 299 304 302 296 319 296 287 285 281 272 272 281 273 273
265 268 267 270 272 270 268 279 276 276 282 291 300 305 307 302 296 296 297 301 310 281 284 294 295 296 298 308 318 317 307 301 299 309 321 321 318 311 307 296 282 274 269
264 268 273 274 278 279 272 263 267 278 292 302 304 305 302 297 293 295 299 307 292 285 293 287 285 341 342 335 348 353 4 4 346 335 347 357 0 1 351 340 329 318 307
276 264 268 272 262 265 265 275 290 296 302 304 302 298 298 296 291 308 318 317 306 303 346 68 74 46 18 22 12 3 15 6 3 351 346 0 2 14 15 11 354 335 328
277 271 261 269 282 289 290 280 289 294 291 291 292 298 274 281 327 347 353 34 78 75 77 78 74 64 27 29 34 24 21 17 352 348 340 352 6 0 2 358 351 347 350
271 261 258 270 295 301 301 290 293 291 285 283 283 244 189 78 68 63 67 89 86 70 66 76 57 54 31 7 3 352 347 349 354 341 322 316 339 329 331 339 359 4 6
319 305 289 291 301 301 297 288 283 286 284 271 227 137 107 91 83 79 78 83 80 76 73 65 60 46 22 7 357 350 336 336 353 358 347 300 325 310 305 336 349 355 357
318 325 326 324 315 299 296 295 290 281 275 181 132 112 101 106 92 81 74 73 76 74 70 68 56 51 44 34 29 23 17 1 344 336 348 314 330 315 301 325 344 352 355
353 333 333 329 336 341 328 323 307 249 163 150 125 103 95 78 82 73 63 51 64 63 64 51 40 32 24 16 13 10 4 4 5 356 357 340 337 325 304 317 341 350 349
24 23 36 44 52 50 40 82 129 123 116 104 89 88 70 68 64 40 12 347 353 13 22 29 27 16 1 350 352 0 9 10 19 4 0 349 347 339 319 312 335 358 355
Wind_Speed_850mb
24 22 20 17 10 17 12 14 8 5 7 8 14 19 21 28 30 32 35 38 38 41 45 50 52 46 40 47 48 48 52 57 62 63 67 66 67 68 67 68 67 71 70
22 20 23 20 20 18 18 18 11 8 11 12 17 22 32 36 39 40 41 41 42 43 42 39 35 36 42 47 48 49 51 51 57 62 64 66 67 72 69 67 70 74 78
25 26 27 22 22 22 24 21 14 13 15 18 23 31 37 42 45 47 46 44 41 41 39 36 32 29 30 33 38 50 50 50 51 58 63 63 65 67 67 67 69 73 77
32 33 29 28 24 22 24 21 18 18 20 25 31 34 37 42 48 51 48 42 42 36 30 29 34 36 38 39 36 40 44 47 44 46 55 57 61 67 68 63 68 69 67
31 28 27 25 24 23 22 22 19 22 26 30 30 30 36 43 46 46 48 37 48 39 37 37 36 43 45 39 37 41 47 51 53 55 50 53 55 54 57 63 66 69 72
22 22 31 30 26 23 24 20 20 22 26 31 34 36 41 43 51 51 41 62 44 44 40 38 38 32 32 40 46 51 51 51 53 53 59 55 52 55 57 60 63 68 71
22 23 21 23 25 26 28 25 20 21 26 34 41 46 48 50 50 49 68 48 47 40 44 39 27 38 42 47 51 49 42 44 45 48 51 54 56 56 55 59 59 62 68
33 27 21 20 24 24 23 21 20 22 29 37 44 46 29 48 40 65 46 54 50 53 40 30 33 40 43 49 57 50 44 44 40 43 47 48 48 51 53 56 60 61 65
22 20 26 31 27 21 18 17 21 26 32 37 40 30 20 18 65 30 58 51 65 52 45 35 33 41 46 54 54 53 53 54 51 54 52 52 54 58 61 69 70 66 66
33 31 26 26 24 20 21 32 34 38 39 42 44 41 31 31 22 36 45 72 61 57 44 41 38 43 52 53 56 59 63 58 53 55 63 66 66 68 71 72 68 68 71
37 35 34 38 40 43 38 54 51 47 44 44 44 43 45 45 41 40 62 75 64 63 52 48 47 52 53 58 58 64 51 58 63 60 62 63 66 67 70 71 68 64 65
28 33 37 41 42 39 38 38 43 52 46 33 31 35 38 40 47 48 60 63 67 59 52 56 52 50 51 53 67 50 58 57 63 56 48 49 51 55 57 57 52 47 48
33 35 43 42 43 43 42 41 38 36 33 34 41 45 43 41 40 47 52 60 59 68 55 49 51 59 60 58 55 62 58 54 50 51 44 39 37 36 33 30 35 30 29
37 39 43 46 44 45 45 44 40 40 43 39 41 41 44 47 45 41 44 53 69 55 56 40 60 55 52 57 59 58 56 50 49 40 36 29 28 27 27 27 25 29 22
43 48 50 49 48 49 48 45 38 43 41 43 46 54 56 55 53 43 46 49 58 52 51 48 45 49 62 55 53 50 38 39 34 29 23 17 20 28 23 6 2 5 16
46 50 52 53 52 49 46 50 57 52 54 67 60 57 58 58 55 53 53 47 56 59 55 48 54 53 52 42 39 29 27 26 24 23 19 15 14 11 7 6 11 9 5
39 46 51 55 50 52 56 51 43 42 47 48 52 58 61 58 54 51 42 45 56 48 51 42 39 39 39 27 23 21 21 19 13 10 15 16 15 12 10 10 10 11 11
46 45 44 43 47 52 49 53 49 43 43 48 54 58 58 51 48 43 41 46 48 41 42 31 32 26 20 15 15 16 15 12 12 17 18 13 12 12 12 12 13 16 19
54 47 46 50 46 44 40 33 35 35 43 50 58 60 51 41 39 38 38 38 35 30 16 13 9 5 6 9 10 12 11 12 12 14 16 16 14 14 13 11 10 12 14
45 58 44 40 46 46 38 33 36 47 52 56 56 47 34 30 29 24 23 18 8 4 3 5 8 6 7 10 13 14 13 16 19 14 18 13 14 17 16 12 18 16 15
32 32 40 40 37 42 43 43 44 50 53 43 39 26 21 13 11 9 9 9 8 9 13 11 12 12 12 16 21 22 20 22 22 21 20 18 16 16 15 12 16 14 12
10 6 19 25 30 36 41 46 51 52 37 34 26 22 5 8 11 8 9 9 14 16 13 12 14 17 15 17 18 18 21 21 27 30 23 12 15 14 12 13 16 15 12
18 21 25 28 35 42 47 39 34 33 31 26 27 23 23 25 26 27 24 17 17 17 19 20 19 16 15 18 20 20 18 19 27 34 24 12 14 14 10 12 19 18 14
19 21 21 24 30 30 25 26 27 24 22 20 34 27 23 21 20 25 30 21 18 16 18 20 22 24 26 25 25 24 21 22 23 27 28 14 18 13 9 11 19 18 12
14 14 18 18 18 16 15 14 10 9 26 38 27 31 27 30 27 16 14 15 17 14 17 19 20 21 19 19 20 17 21 23 30 23 35 17 19 13 10 12 21 20 16
17 16 17 20 22 22 21 12 34 44 48 37 27 33 22 20 12 11 9 11 8 9 10 14 18 21 21 20 24 22 23 29 34 22 38 24 16 15 10 16 18 16 15
Wind_Direction_850mb
229 227 222 218 224 211 220 210 199 249 302 325 329 330 329 329 326 321 315 308 302 297 292 290 289 291 297 294 290 281 282 281 280 281 280 279 277 274 278 278 275 270 268
254 258 244 226 224 220 193 207 227 264 288 301 315 323 324 326 325 322 317 312 306 300 297 299 303 304 294 286 287 288 287 286 285 281 279 281 278 273 275 275 274 273 270
262 277 265 238 232 204 216 224 235 266 285 292 310 319 320 324 327 324 322 321 313 307 304 297 294 306 315 301 289 279 278 282 280 276 274 276 280 275 275 272 272 270 266
266 271 261 238 231 218 206 223 251 268 288 302 312 319 324 329 329 324 323 316 317 309 310 300 299 301 307 308 293 286 283 290 290 292 274 271 276 274 274 275 272 271 270
260 243 215 221 206 210 216 242 261 283 298 305 309 316 327 332 332 330 319 326 324 314 301 299 298 297 302 301 301 293 292 292 292 292 292 283 279 275 274 272 277 276 274
230 205 224 222 213 227 244 253 272 293 306 312 315 319 325 334 335 336 332 328 329 315 305 300 304 314 307 304 295 291 294 291 288 286 282 279 279 277 271 270 274 275 274
229 231 215 211 224 239 250 262 280 301 317 321 323 324 332 336 332 336 327 330 331 330 317 309 300 312 316 311 311 318 310 301 294 284 277 277 278 276 273 272 273 277 277
247 220 223 238 257 260 263 267 284 312 325 335 342 342 333 333 320 329 331 329 332 330 322 302 298 307 307 309 312 313 311 305 297 288 284 282 276 271 271 269 269 273 273
211 235 255 262 260 268 281 298 315 319 326 332 339 345 339 318 326 327 324 322 327 335 333 316 297 302 302 305 311 310 309 308 297 283 279 279 276 271 278 281 280 280 276
239 233 250 260 265 288 327 327 332 330 330 330 332 331 327 317 328 322 310 318 321 330 332 329 321 307 306 309 308 307 309 308 299 287 280 279 280 277 277 281 284 283 278
249 252 249 258 276 285 283 292 302 310 314 321 325 322 318 318 318 317 313 318 323 325 327 321 317 313 309 308 309 314 313 309 304 298 289 284 279 279 282 285 287 283 276
256 265 272 281 279 288 281 283 286 289 297 311 316 312 317 317 312 313 311 310 310 317 317 318 312 315 306 304 314 320 321 321 321 321 305 296 291 287 287 287 289 288 283
271 267 262 264 270 275 280 285 287 294 301 305 307 304 310 305 302 308 306 308 308 308 312 304 303 303 302 307 314 316 317 319 320 320 322 317 313 311 306 304 304 297 297
268 258 257 259 259 266 274 277 283 289 305 310 311 306 306 302 302 305 305 307 306 305 305 295 304 302 302 303 308 311 314 316 316 313 318 328 321 323 325 314 307 298 291
265 264 265 263 265 266 263 273 290 298 304 313 318 318 315 315 302 296 293 295 301 298 298 298 296 299 299 303 304 308 307 310 307 311 309 315 306 312 306 277 199 126 293
264 259 260 257 256 259 266 270 288 286 286 291 303 305 313 315 301 296 294 295 296 294 286 290 295 293 295 296 303 299 295 295 295 293 294 293 293 290 264 251 269 238 192
262 261 263 260 254 264 269 272 275 280 288 293 299 304 308 311 304 299 295 300 300 290 282 288 285 284 298 305 301 299 304 302 296 319 296 287 285 281 272 272 281 273 273
265 268 267 270 272 270 268 279 276 276 282 291 300 305 307 302 296 296 297 301 310 281 284 294 295 296 298 308 318 317 307 301 299 309 321 321 318 311 307 296 282 274 269
264 268 273 274 278 279 272 263 267 278 292 302 304 305 302 297 293 295 299 307 292 285 293 287 285 341 342 335 348 353 4 4 346 335 347 357 0 1 351 340 329 318 307
276 264 268 272 262 265 265 275 290 296 302 304 302 298 298 296 291 308 318 317 306 303 346 68 74 46 18 22 12 3 15 6 3 351 346 0 2 14 15 11 354 335 328
277 271 261 269 282 289 290 280 289 294 291 291 292 298 274 281 327 347 353 34 78 75 77 78 74 64 27 29 34 24 21 17 352 348 340 352 6 0 2 358 351 347 350
271 261 258 270 295 301 301 290 293 291 285 283 283 244 189 78 68 63 67 89 86 70 66 76 57 54 31 7 3 352 347 349 354 341 322 316 339 329 331 339 359 4 6
319 305 289 291 301 301 297 288 283 286 284 271 227 137 107 91 83 79 78 83 80 76 73 65 60 46 22 7 357 350 336 336 353 358 347 300 325 310 305 336 349 355 357
318 325 326 324 315 299 296 295 290 281 275 181 132 112 101 106 92 81 74 73 76 74 70 68 56 51 44 34 29 23 17 1 344 336 348 314 330 315 301 325 344 352 355
353 333 333 329 336 341 328 323 307 249 163 150 125 103 95 78 82 73 63 51 64 63 64 51 40 32 24 16 13 10 4 4 5 356 357 340 337 325 304 317 341 350 349
24 23 36 44 52 50 40 82 129 123 116 104 89 88 70 68 64 40 12 347 353 13 22 29 27 16 1 350 352 0 9 10 19 4 0 349 347 339 319 312 335 358 355